Temp
6 7 7 7 7 7 7 7 7 7 7 6 7 6 6 7 7 8 8 8 8 8 8 8 8 9 9
6 6 6 6 6 6 6 7 7 6 6 6 6 6 5 6 7 8 8 8 8 8 7 8 7 7 8
4 5 5 6 6 6 6 6 6 6 6 6 5 5 5 5 6 6 7 7 7 7 7 7 7 6 7
5 4 4 5 5 5 5 6 6 6 6 5 4 5 5 5 5 6 6 6 6 7 7 7 6 6 5
3 3 3 3 4 5 5 5 5 6 6 6 5 5 5 5 5 5 5 5 5 5 6 6 6 6 5
2 2 2 3 3 4 4 3 1 5 4 5 5 5 5 5 5 4 4 4 4 5 5 5 6 6 6
3 2 2 3 3 2 3 3 2 3 3 3 3 4 5 4 4 4 4 4 4 4 4 4 5 5 4
3 3 3 3 3 3 2 2 2 2 2 1 3 3 4 4 4 4 4 3 3 3 3 4 4 4 5
3 2 3 3 3 3 2 1 1 1 1 2 1 2 2 3 4 4 3 3 3 3 3 3 3 3 3
3 3 3 2 2 2 2 1 1 1 2 1 1 1 1 2 2 2 2 2 2 2 2 1 2 1 1
1 1 1 1 2 2 2 1 0 1 2 2 2 1 1 1 2 2 2 2 2 1 1 1 1 0 -0
1 0 -0 0 1 1 1 1 1 1 1 1 1 0 -0 -0 -1 0 1 1 1 1 1 0 0 -1 -1
-1 -1 -0 0 0 0 0 0 0 1 0 0 -0 -0 -1 -0 -0 -1 -1 -1 -1 -0 0 -0 -0 -1 -2
-1 -0 -0 -0 -0 0 0 1 1 0 1 0 0 -1 -1 -2 -2 -1 -1 -2 -2 -1 -1 -1 -2 -2 -2
-1 -1 -1 -1 -1 -0 -0 -0 -1 -1 -1 -1 -1 -1 -1 -0 -1 -2 -2 -1 -2 -3 -4 -3 -2 -2 -3
-1 -1 -1 -1 -2 -1 -1 -1 -2 -1 -1 -1 -1 -2 -2 -2 -2 -2 -3 -3 -3 -3 -4 -4 -3 -2 -3
-2 -1 -2 -2 -2 -2 -2 -2 -3 -2 -2 -2 -2 -2 -2 -2 -1 -2 -3 -3 -3 -3 -4 -4 -3 -3 -3
Height
768 767 765 764 763 761 760 759 758 757 757 755 756 755 754 752 751 750 750 749 749 749 749 748 747 747 747
766 764 763 761 759 756 755 755 754 753 752 751 750 750 748 748 747 746 745 745 744 744 744 744 743 743 743
762 762 760 758 755 753 752 750 750 749 748 747 746 744 742 742 742 742 741 740 740 740 740 740 740 739 739
758 757 756 755 754 751 748 747 745 745 743 741 740 739 739 737 737 737 736 735 735 735 735 734 735 735 735
755 753 750 750 750 749 745 743 741 740 737 736 736 736 736 735 731 730 729 730 729 729 729 729 730 731 731
752 750 746 746 746 744 743 742 738 737 734 731 732 728 728 728 726 726 724 723 723 724 723 724 723 724 726
747 745 743 741 742 740 739 738 736 734 734 727 726 723 722 721 721 721 721 719 719 718 718 718 718 719 719
741 739 738 737 737 736 734 732 730 728 730 724 722 718 717 716 716 715 715 714 713 714 713 714 714 714 714
735 734 733 732 732 731 729 729 725 723 723 721 716 714 713 710 709 707 707 710 710 710 710 710 710 710 710
727 726 726 725 725 725 724 723 724 721 717 718 715 716 710 706 707 705 706 707 708 708 706 706 706 706 705
721 719 718 717 716 716 716 716 715 714 713 714 712 712 712 707 705 706 706 705 704 703 703 702 702 702 701
715 712 710 709 708 709 708 707 707 706 708 709 706 706 705 703 701 700 701 700 699 697 697 698 698 697 696
707 705 703 701 701 701 701 701 700 699 700 700 700 698 697 695 694 692 694 693 693 692 692 692 691 691 690
699 697 695 694 693 694 693 693 692 690 691 691 691 691 690 688 688 686 686 686 686 685 685 684 685 684 684
691 689 687 686 685 685 685 685 684 683 682 681 682 682 680 680 679 677 677 677 677 677 680 679 678 678 678
683 682 681 680 678 678 677 677 677 676 674 673 673 673 671 669 670 669 669 667 668 670 671 671 669 670 671
676 675 674 673 672 670 669 668 668 667 665 665 665 664 662 657 657 658 659 660 662 662 662 662 661 661 664
Wind_Speed
20 22 22 22 20 16 14 16 16 17 15 16 15 17 18 18 18 16 17 16 15 14 13 13 12 13 12
20 22 22 21 21 21 17 15 12 14 15 11 13 18 18 19 16 17 18 17 16 15 15 14 13 9 9
16 17 22 21 21 18 17 17 17 14 13 17 19 16 16 16 18 19 18 16 18 19 17 15 14 12 10
22 22 21 20 17 19 21 17 16 17 21 19 13 11 12 12 13 16 17 18 19 20 20 18 16 13 11
18 19 18 18 14 17 20 21 21 21 20 14 9 15 20 21 22 23 22 18 15 16 16 16 16 18 15
17 16 18 19 17 15 17 14 4 9 11 18 27 27 25 25 19 19 16 16 18 19 18 20 19 19 18
22 23 21 22 19 18 18 19 17 24 24 26 24 28 28 20 14 12 14 15 18 18 18 15 14 15 15
24 29 28 27 25 24 22 20 20 23 17 14 21 27 25 22 19 20 21 18 15 13 9 14 16 15 17
20 20 21 22 21 20 20 16 14 16 16 19 12 15 21 25 19 14 13 12 11 10 10 10 13 14 16
24 23 22 22 21 21 23 18 15 12 6 10 15 9 6 6 7 5 6 8 10 12 13 12 13 14 16
26 29 29 28 27 25 24 25 20 20 17 16 16 15 12 12 14 15 16 17 17 18 18 18 18 14 18
26 28 28 31 33 27 23 24 26 30 28 24 18 19 15 14 12 13 17 20 19 18 16 19 20 17 14
21 24 27 32 30 26 23 22 25 27 26 26 28 27 25 22 16 19 20 16 15 21 22 22 22 20 17
25 27 30 28 28 26 26 24 24 26 28 26 26 27 28 25 24 26 23 14 14 12 14 21 19 19 21
25 26 25 26 27 27 25 24 18 17 22 24 25 28 33 31 25 23 23 26 26 27 24 25 26 25 23
27 23 20 19 21 22 25 21 18 22 24 26 25 21 23 25 33 30 25 27 26 22 23 22 21 22 22
20 23 21 23 22 22 22 21 20 22 23 24 23 21 10 11 26 24 25 24 21 22 24 23 23 22 20
Wind_Direction
283 295 302 308 312 309 304 298 294 304 306 299 281 291 292 287 284 279 274 269 270 265 262 257 259 254 254
288 295 300 309 311 309 307 309 294 301 300 289 285 288 294 280 283 276 270 272 270 267 263 268 270 257 260
282 287 295 306 311 309 307 303 302 298 297 297 293 288 290 285 277 279 273 269 264 266 269 269 268 265 257
277 286 290 299 302 301 304 305 302 302 308 313 305 297 294 280 276 281 277 267 268 266 267 267 265 264 253
276 280 281 288 283 299 295 302 298 299 297 316 311 307 305 298 282 279 272 274 273 266 266 270 261 260 253
270 267 274 277 286 284 296 304 310 289 285 295 304 304 308 310 289 281 275 264 270 272 272 268 264 254 254
270 269 275 285 290 285 282 281 274 284 291 286 294 296 307 304 290 271 271 268 269 269 272 259 249 253 255
263 274 278 286 285 285 285 281 280 283 278 274 286 288 296 292 287 278 275 264 264 268 260 248 254 261 264
282 280 280 281 281 280 270 273 289 287 275 262 276 287 292 294 289 276 256 251 247 249 252 260 260 264 264
287 281 274 269 268 262 266 262 272 293 277 237 262 271 299 278 286 267 242 246 252 263 259 261 268 278 277
287 290 289 282 276 268 264 260 254 246 255 264 268 268 260 280 282 281 281 274 269 263 263 267 271 271 278
278 279 278 282 286 287 280 271 265 264 271 262 254 247 243 258 267 273 273 278 280 270 269 273 275 269 272
268 269 271 283 289 287 288 283 273 272 273 270 267 258 248 253 262 260 266 270 271 269 268 271 270 280 272
267 272 281 278 277 279 275 275 273 273 271 271 268 262 258 254 257 261 255 243 268 270 276 267 256 265 274
270 269 268 272 270 279 273 265 251 264 275 270 267 266 260 258 257 252 251 258 257 260 261 257 257 264 266
273 264 261 268 270 271 267 250 254 265 265 265 262 257 248 248 250 255 253 247 248 246 248 246 255 255 255
272 277 272 275 274 271 258 244 248 254 252 262 254 243 241 251 254 241 236 244 245 243 239 238 246 252 247